www.pogodaiklimat.ru

Погода и климат >> Архив погоды >> Россия >> Калининградская область >> Железнодорожный


ПОГОДА в Железнодорожном

  • Прогноз погоды в Железнодорожном
  • Монитор погоды в Железнодорожном

АРХИВ ПОГОДЫ в Железнодорожном

Время (UTC), дата Ветер
(напр.,м/с)
 
Видим.   Явления Облачность Т
(С)
Тd
(С)
f
(%)
Тe
(С)
Тes
(С)
Комфортность P
(гПа)
Po
(гПа)
Тmin
(С)
Tmax
(С)
R
(мм)
R24
(мм)
S
(см)
03 14.05 С 3-4
{8}
11 км слаб. ливневой дождь 10/10 300 м
[Cb cap]
+5.5 +4.6 94 +2 +2 1029.8 1023.5 +5.5 7
06 14.05 С 4-7
{8}
21 км {ливн. осадки} 9/9 600 м
[Cb cap]
+6.6 +4.1 84 +3 +3 1029.9 1023.6 +5.5 7
09 14.05 С 5-9
{10}
26 км 10/10 600 м
[Sc]
+8.1 +3.5 73 +5 +5 1029.4 1023.2
12 14.05 С 4-7
{9}
26 км 10/10 600 м
[Sc]
+8.8 +4.4 74 +6 +6 1028.8 1022.6
15 14.05 С 3-5
{7}
21 км {ливн. осадки} 10/10 600 м
[Sc]
+10.0 +5.5 74 +8 +8 1027.5 1021.3 0.0
18 14.05 С 2-4
{5}
18 км {ливн. осадки} 10/10 600 м
[Sc]
+9.7 +6.0 78 +8 +8 1027.1 1020.9 +10.1 0.0
21 14.05 С 3-5
{5}
10 км {ливн. осадки} 10/10 600 м
[Sc]
+9.2 +5.1 76 +7 +7 1026.8 1020.6
00 15.05 С 3-5
{5}
10 км {ливн. осадки} 10/10 600 м
[Sc]
+8.3 +5.1 80 +6 +6 1026.0 1019.8
03 15.05 С 3-5
{6}
16 км 10/10 600 м
[Sc]
+7.7 +4.5 80 +5 +5 1025.1 1018.9 +7.7 0.0
06 15.05 С 3-6
{6}
23 км 9/6 600 м
[Sc Ac trans Ci fib]
+9.0 +4.8 75 +7 +8 1024.1 1017.9 +7.6 0.0
09 15.05 С 5-8
{10}
26 км 9/9 600 м
[Sc]
+12.2 +7.1 71 +10 +11 1023.1 1017.0
12 15.05 СВ 1-2
{8}
8000 м слаб. ливневой дождь 10/10 600 м
[Cb cap]
+12.6 +10.9 89 +13 +13 1022.4 1016.3
15 15.05 С 2-4
{5}
12 км слаб. ливневой дождь 10/10 600 м
[Cb cap]
+13.7 +12.3 91 +13 +13 1021.2 1015.1 7
18 15.05 С 3-5
{5}
18 км {ливн. осадки} 10/10 600 м
[Sc]
+13.7 +11.7 88 +13 +13 1020.5 1014.4 +14.8 7
21 15.05 СВ 3-7
{7}
20 км в посл. час ливневой дождь 10/10 600 м
[Cb cap]
+13.2 +10.1 81 +12 +12 1020.5 1014.4
00 16.05 СВ 3-6
{8}
20 км {ливн. осадки} 10/10 600 м
[Sc]
+12.4 +8.5 77 +11 +11 1019.1 1013.0
03 16.05 СВ 3-7
{8}
23 км 9/9 600 м
[Sc]
+12.0 +7.1 72 +10 +10 1018.5 1012.4 +12.0 0.7
06 16.05 СВ 4-8
{8}
26 км 6/4 600 м
[Sc Ci fib]
+12.8 +8.3 74 +11 +13 1018.4 1012.3 +11.9 0.4
09 16.05 СВ 4-8
{10}
26 км 9/9 600 м
[Sc]
+15.4 +10.2 71 +14 +15 1018.2 1012.2
12 16.05 СВ 3-6
{11}
11 км слаб. ливневой дождь 10/10 300 м
[Cb cap]
+13.7 +12.3 91 +12 +12 1018.2 1012.2
15 16.05 В 4-10
{10}
20 км слаб. ливневой дождь 10/10 300 м
[Cb cap]
+14.9 +12.4 85 +14 +14 1017.9 1011.9 0.5
18 16.05 В 3-6
{9}
20 км {ливн. осадки} 10/10 600 м
[Sc]
+15.1 +12.5 84 +14 +14 1017.8 1011.8 +15.6 0.5
21 16.05 СВ 2-4
{7}
10 км слаб. ливневой дождь 10/10 300 м
[Cb cap]
+14.1 +12.8 92 +14 +14 1017.6 1011.6
00 17.05 СВ 3-5
{6}
10 км слаб. ливневой дождь 10/10 300 м
[Cb cap]
+13.8 +13.0 95 +13 +13 1016.5 1010.5
03 17.05 СВ 3-7
{7}
20 км {ливн. осадки} 10/10 600 м
[Sc]
+13.1 +12.0 93 +12 +12 1015.0 1009.0 +13.0 2
06 17.05 СВ 3-7
{8}
20 км {ливн. осадки} 10/10 600 м
[Sc]
+13.1 +11.0 87 +12 +12 1014.8 1008.8 +13.0 2
09 17.05 В 3-5
{8}
24 км 9/9 600 м
[Sc diur, vesp]
+14.5 +12.4 87 +14 +15 1014.6 1008.6
12 17.05 В 3-5
{7}
27 км 9/9 600 м
[Sc]
+17.3 +14.3 83 +17 +18 1014.7 1008.8
15 17.05 В 4-7
{10}
30 км 8/8 600 м
[Sc]
+20.3 +15.2 73 +23 +24 комфорт 1013.9 1008.0
18 17.05 В 2-4
{9}
24 км 8/4 600 м
[Sc Ci sp]
+18.4 +14.7 79 +19 +20 1013.8 1007.9 +20.6
21 17.05 СВ 1-2
{5}
20 км ясно +15.3 +13.8 91 +16 +16 1014.8 1008.8
00 18.05 В 1-2
{3}
4000 м дымка ясно +13.4 +12.8 96 +13 +13 1015.0 1009.0
03 18.05 СВ 1-1
{2}
500 м туман ясно +10.1 +9.7 97 +9 +10 1014.8 1008.7 +10.0
06 18.05 С 1-2
{2}
5000 м дымка {туман} ясно +15.9 +15.3 96 +17 +23 1013.9 1007.9 +10.0 0.0
09 18.05 ЮВ 1-2
{5}
16 км {гроза, ливн. осадки} 10/10 300 м
[Cb cap]
+17.9 +15.9 88 +19 +19 1013.5 1007.6
12 18.05 В 3-6
{6}
15 км в посл. час ливневой дождь {гроза} 10/10 300 м
[Cb cap]
+18.8 +16.8 88 +20 +20 1013.5 1007.6
15 18.05 В 3-5
{8}
18 км 9/6 600 м
[Sc Ac trans Ci fib]
+21.4 +15.7 70 +25 +26 комфорт 1011.8 1006.0 4
18 18.05 штиль 0-1
{5}
12 км 10/8 300 м
[Cb cap Ac und]
+19.7 +16.8 83 +22 +22 комфорт 1012.0 1006.1 +21.8 4
21 18.05 ЮВ 4-7
{7}
4000 м гроза, ливневой дождь 10/10 300 м
[Cb cap]
+17.1 +15.4 90 +17 +17 1012.2 1006.3
00 19.05 Ю 1-2
{6}
4000 м слаб. ливневой дождь {гроза} 10/10 300 м
[Cb cap]
+15.3 +14.7 96 +16 +16 1011.4 1005.4
03 19.05 ЮВ 1-1
{4}
6000 м дымка {ливн. осадки} 9/8 600 м
[Sc Ac trans]
+14.4 +13.8 96 +15 +15 1011.5 1005.5 +14.3 4
06 19.05 В 2-3
{3}
13 км {ливн. осадки} 10/6 600 м
[Sc Ac und]
+16.8 +15.9 94 +17 +18 1011.5 1005.6 +14.2 4
09 19.05 В 2-4
{5}
30 км 4/3 600 м
[Cu med, cong Ci fib]
+23.0 +16.2 66 +28 +37 душно 1010.8 1005.0
12 19.05 В 3-5
{7}
30 км 9/9 600 м
[Sc]
+23.2 +12.7 52 +26 +27 жарко 1010.1 1004.3
15 19.05 ЮВ 3-7
{7}
30 км 8/4 600 м
[Cu med, cong Ac cast Ci fib]
+23.0 +14.5 59 +27 +29 душно 1009.6 1003.8 0.3
18 19.05 ЮВ 2-3
{10}
25 км 8/4 600 м
[Sc Ac cast Ci sp]
+19.8 +12.7 64 +22 +22 комфорт 1009.7 1003.8 +24.3
21 19.05 В 2-3
{3}
20 км 4/0
[Ci sp]
+16.0 +12.9 82 +16 +16 1010.1 1004.2
00 20.05 В 1-2
{4}
20 км ясно +15.6 +13.3 86 +16 +16 1009.9 1004.0
03 20.05 В 2-3
{3}
20 км 4/4 600 м
[Sc]
+15.5 +13.9 90 +15 +15 1009.5 1003.6 +14.8
06 20.05 В 3-7
{7}
25 км 3/0
[Ci fib]
+20.4 +14.9 71 +23 +27 комфорт 1008.6 1002.8 +14.8
09 20.05 В 2-4
{4}
25 км 6/0
[Ac trans Ci fib]
+24.1 +14.1 54 +27 +36 жарко 1008.0 1002.2
12 20.05 ЮВ 5-9
{11}
28 км 4/0 600 м
[Cu med, cong]
+26.1 +15.3 51 +29 +35 жарко 1007.4 1001.7
15 20.05 ЮВ 4-9
{11}
20 км 4/3 600 м
[Cu med, cong Ci fib]
+25.9 +16.4 56 +29 +32 душно 1006.2 1000.5
18 20.05 В 2-5
{13}
12 км гроза, ливневой дождь 10/10 300 м
[Cb cap]
+16.5 +15.1 91 +17 +17 1007.5 1001.6 +26.9 5
21 20.05 В 2-4
{10}
10 км гроза, ливневой дождь 10/10 300 м
[Cb cap]
+16.2 +15.2 94 +16 +16 1007.8 1001.9
00 21.05 В 1-2
{7}
10 км в посл. час гроза {ливн. осадки} 10/10 300 м
[Cb cap]
+15.7 +14.3 91 +16 +16 1005.9 1000.0

 

Местоположение метеостанции Железнодорожный (Калининградская область, Россия): широта 54.37 долгота 21.30 высота над уровнем моря 50 м.

В архиве по умолчанию представлена погода в Железнодорожном за последнюю неделю. Архивные данные за месяц целиком и за предыдущие месяцы, начиная с января 2011 года, Вы можете получить, выбрав интересующий диапазон дат из раскрывающегося списка и нажав кнопку "Ввод!".


*Определитесь, кто Вы:
робот инопланетянин человек

Внимание! Время в таблицах - всемирное. Для получения местного времени необходимо прибавить поправку, которая равна 2 ч.

Смотрите также архив погоды в соседних городах и на ближайших метеорологических станциях:

Погода в Кентшине (Польша) (34 км)
Погода в Черняховске (Калининградская область, Россия) (43 км)
Погода в Калининграде (Калининградская область, Россия) (57 км)
Погода в Рыбном Порту (Калининградская область, Россия) (66 км)
Погода в Миколайках (Польша) (68 км)
Погода в Ольштыне (Польша) (88 км)
Погода в Советске (Калининградская область, Россия) (89 км)
Погода в Мамоново (Калининградская область, Россия) (89 км)
Погода в Виштынце (Калининградская область, Россия) (91 км)
Погода в Рыбачем (Калининградская область, Россия) (93 км)

Пояснения к столбцам:

Ветер - указаны скорость ветра в м/с - средняя за 10 мин, порывы в срок и между сроками (в фигурных скобках) и направление, откуда дует ветер: С - северный, СВ - северо-восточный, В - восточный, ЮВ - юго-восточный, Ю - южный, ЮЗ - юго-западный, З - западный, СЗ - северо-западный.
Видимость - горизонтальная дальность видимости в метрах или километрах. При видимости от 1 до 10 км при отсутствии осадков обычно наблюдается дымка, при ухудшении видимости до 1 км и менее - туман. В сухую погоду видимость может ухудшаться дымом, пылью или мглою.
Явления - указаны атмосферные явления, наблюдавшиеся в срок или в последний час перед сроком; фигурными скобками обозначены явления, наблюдавшиеся между сроками (за 1-3 часа до срока); квадратными скобками обозначены град или гололедные отложения с указанием их диаметра в мм.
Облачность - указаны через наклонную черту общая и нижняя облачность в баллах и высота нижней границы облаков в метрах; квадратными скобками обозначены формы облаков: Ci - перистые, Cs - перисто-слоистые, Cc - перисто-кучевые, Ac - высококучевые, As - высокослоистые, Sc - слоисто-кучевые, Ns - слоисто-дождевые, Cu - кучевые, Cb - кучево-дождевые. Подробнее классификацию облаков см. в Атласе облаков (PDF).
T - Температура воздуха - температура, измеренная на высоте 2 м над землей.
Td - Температура точки росы - температура, при понижении до которой содержащийся в воздухе водяной пар достигнет насыщения.
f - Относительная влажность воздуха - влажноcть воздуха, измеренная на высоте 2 м над землей.
Te - Эффективная температура - температура, которую ощущает одетый по сезону человек в тени. Характеристика душности погоды. При расчете учитывается влияние влажности воздуха и скорости ветра на теплоощущения человека.
Tes - Эффективная температура на солнце - температура, которую ощущает человек, с поправкой на солнечный нагрев. Характеристика знойности погоды. Зависит от высоты солнца над горизонтом, облачности и скорости ветра. Ночью, в пасмурную погоду, а также при ветре 12 м/с и более поправка равна нулю.
P - Атмосферное давление - приведенное к уровню моря атмосферное давление.
Po - Атмосферное давление - измеренное на уровне метеостанции атмосферное давление.
Tmin - Минимальная температура - минимум температуры воздуха на высоте 2 м над землей.
Tmax - Максимальная температура - максимум температуры воздуха на высоте 2 м над землей.
R - Количество осадков - Количество выпавших осадков за период времени, мм. При наведении курсора мыши на число - период времени, за который выпало указанное количество осадков.
R24 - Количество осадков - Количество выпавших осадков за 24 часа, мм.
S - Снежный покров - Высота снежного покрова, см. При наведении курсора мыши на число - состояние снежного покрова и степень покрытия местности в баллах.